Location: Madrid
(40.4000°N, 3.6830°W)
Time: 16:40:35
(UTC+02:00)

ISS - Pass Details

Date: 08 March 2021
Orbit: 418 x 422 km, 51.6° (Epoch: 16 April)

Event Time Altitude Azimuth Distance (km) Brightness Sun altitude
Exits shadow 05:42:58 16° 0° (N) 1,168 -1.4 -22.5°
Maximum altitude 05:43:43 18° 17° (NNE) 1,123 -1.3 -22.4°
Drops below altitude 10° 05:46:05 10° 62° (ENE) 1,497 0.1 -21.9°
Sets 05:48:40 0° 83° (E) 2,360 1.6 -21.4°
